Weather reports worldwide

Advertisment
Ross-on-Wye, United Kingdom (99207): temperature & dewpoint: 18.05.2018 07:00:00 - 24.05.2018 07:00:00 (BST)Ross-on-Wye, United Kingdom (99207): precipitation: 18.05.2018 07:00:00 - 24.05.2018 07:00:00 (BST)
Date & Time tt [°C] td [°C] rr [mm]
24.05.2018 07:00:00 9,5 8,8 1,2
24.05.2018 06:00:00 9,7 8,5 1,4
24.05.2018 05:00:00 10,4 7,9 0,2
24.05.2018 04:00:00 11,1 7,5 0,0
24.05.2018 03:00:00 11,7 7,6 0,0
24.05.2018 02:00:00 12,4 8,0 0,0
24.05.2018 01:00:00 13,5 8,8 0,0
24.05.2018 00:00:00 14,7 9,4 0,0
23.05.2018 23:00:00 15,8 9,3 0,0
23.05.2018 22:00:00 16,7 9,5 0,0
23.05.2018 21:00:00 17,4 9,6 0,0
23.05.2018 20:00:00 19,1 9,9 0,0
23.05.2018 19:00:00 20,0 10,0 0,0
23.05.2018 18:00:00 20,9 9,2 0,0
23.05.2018 17:00:00 21,0 10,3 0,0
23.05.2018 16:00:00 21,5 10,8 0,0
23.05.2018 15:00:00 20,6 10,7 0,0
23.05.2018 14:00:00 19,5 10,3 0,0
23.05.2018 13:00:00 18,7 10,4 0,0
23.05.2018 12:00:00 17,3 9,7 0,0
23.05.2018 11:00:00 14,8 8,7 0,0
23.05.2018 10:00:00 12,3 7,8 0,0
23.05.2018 09:00:00 11,5 7,8 0,0
23.05.2018 08:00:00 10,6 7,5 0,0
23.05.2018 07:00:00 10,2 7,5 0,0
23.05.2018 06:00:00 10,0 7,6 0,0
23.05.2018 05:00:00 10,0 7,6 0,0
23.05.2018 04:00:00 9,4 8,0 0,0
23.05.2018 03:00:00 10,0 8,0 0,0
23.05.2018 02:00:00 11,4 9,0 0,0
23.05.2018 01:00:00 12,3 9,1 0,0
23.05.2018 00:00:00 13,5 9,6 0,0
22.05.2018 23:00:00 14,8 10,0 0,0
22.05.2018 22:00:00 16,4 9,8 0,0
22.05.2018 21:00:00 18,5 9,7 0,0
22.05.2018 20:00:00 20,1 9,5 0,0
22.05.2018 19:00:00 21,2 9,1 0,0
22.05.2018 18:00:00 21,9 9,6 0,0
22.05.2018 17:00:00 22,3 11,2 0,0
22.05.2018 16:00:00 21,5 10,7 0,0
22.05.2018 15:00:00 21,8 11,0 0,0
22.05.2018 14:00:00 20,6 10,3 0,0
22.05.2018 13:00:00 19,0 9,7 0,0
22.05.2018 12:00:00 19,0 10,4 0,0
22.05.2018 11:00:00 17,5 11,1 0,0
22.05.2018 10:00:00 16,3 10,1 0,0
22.05.2018 09:00:00 15,3 10,7 0,0
22.05.2018 08:00:00 13,0 10,1 0,0
22.05.2018 07:00:00 11,7 9,6 0,0
22.05.2018 06:00:00 11,5 9,5 0,0
22.05.2018 05:00:00 11,5 9,4 0,0
22.05.2018 04:00:00 11,7 9,5 0,0
22.05.2018 03:00:00 11,9 9,4 0,0
22.05.2018 02:00:00 12,2 9,0 0,0
22.05.2018 01:00:00 12,7 8,0 0,0
22.05.2018 00:00:00 13,0 8,5 0,0
21.05.2018 23:00:00 14,1 9,0 0,0
21.05.2018 22:00:00 15,0 12,1 0,2
21.05.2018 21:00:00 15,0 12,2 4,2
21.05.2018 20:00:00 19,0 9,3 0,0
21.05.2018 19:00:00 19,6 9,6 0,0
21.05.2018 18:00:00 21,6 10,8 0,0
21.05.2018 17:00:00 22,9 9,8 0,0
21.05.2018 16:00:00 23,9 10,4 0,0
21.05.2018 15:00:00 23,3 11,6 0,0
21.05.2018 14:00:00 22,3 9,2 0,0
21.05.2018 13:00:00 21,4 7,1 0,0
21.05.2018 12:00:00 20,7 8,0 0,0
21.05.2018 11:00:00 19,4 6,9 0,0
21.05.2018 10:00:00 18,7 10,8 0,0
21.05.2018 09:00:00 16,0 9,8 0,0
21.05.2018 08:00:00 13,1 10,1 0,0
21.05.2018 07:00:00 9,4 9,2 0,0
21.05.2018 06:00:00 7,9 7,5 0,0
21.05.2018 05:00:00 8,3 7,7 0,0
21.05.2018 04:00:00 9,0 8,3 0,0
21.05.2018 03:00:00 9,5 8,3 0,0
21.05.2018 02:00:00 10,3 8,8 0,0
21.05.2018 01:00:00 11,5 9,6 0,0
21.05.2018 00:00:00 12,0 9,2 0,0
20.05.2018 23:00:00 13,2 9,7 0,0
20.05.2018 22:00:00 15,1 9,8 0,0
20.05.2018 21:00:00 17,3 9,0 0,0
20.05.2018 20:00:00 19,2 9,2 0,0
20.05.2018 19:00:00 20,7 9,1 0,0
20.05.2018 18:00:00 21,5 9,0 0,0
20.05.2018 17:00:00 22,6 8,2 0,0
20.05.2018 16:00:00 22,7 7,4 0,0
20.05.2018 15:00:00 22,2 7,2 0,0
20.05.2018 14:00:00 21,7 7,5 0,0
20.05.2018 13:00:00 20,6 8,2 0,0
20.05.2018 12:00:00 20,3 10,5 0,0
20.05.2018 11:00:00 19,4 9,6 0,0
20.05.2018 10:00:00 17,7 10,4 0,0
20.05.2018 09:00:00 14,2 9,2 0,0
20.05.2018 08:00:00 11,0 8,7 0,0
20.05.2018 07:00:00 8,1 7,2 0,0
20.05.2018 06:00:00 6,9 6,2 0,0
20.05.2018 05:00:00 6,6 5,7 0,0
20.05.2018 04:00:00 7,8 7,3 0,0
20.05.2018 03:00:00 8,0 6,9 0,0
20.05.2018 02:00:00 9,1 8,0 0,0
20.05.2018 01:00:00 10,8 8,3 0,0
20.05.2018 00:00:00 10,9 8,9 0,0
19.05.2018 23:00:00 12,9 9,0 0,0
19.05.2018 22:00:00 14,5 7,8 0,0
19.05.2018 21:00:00 17,4 8,0 0,0
19.05.2018 20:00:00 19,7 8,2 0,0
19.05.2018 19:00:00 20,7 7,1 0,0
19.05.2018 18:00:00 21,4 6,8 0,0
19.05.2018 17:00:00 20,8 7,3 0,0
19.05.2018 16:00:00 20,6 7,1 0,0
19.05.2018 15:00:00 19,8 7,3 0,0
19.05.2018 14:00:00 20,2 8,5 0,0
19.05.2018 13:00:00 18,7 6,7 0,0
19.05.2018 12:00:00 18,6 7,3 0,0
19.05.2018 11:00:00 17,9 8,5 0,0
19.05.2018 10:00:00 15,2 7,9 0,0
19.05.2018 09:00:00 12,7 7,6 0,0
19.05.2018 08:00:00 10,3 7,7 0,0
19.05.2018 07:00:00 7,0 6,6 0,0
19.05.2018 06:00:00 6,2 5,8 0,0
19.05.2018 05:00:00 6,0 5,3 0,0
19.05.2018 04:00:00 6,7 5,8 0,0
19.05.2018 03:00:00 7,4 6,0 0,0
19.05.2018 02:00:00 9,1 7,2 0,0
19.05.2018 01:00:00 9,4 7,7 0,0
19.05.2018 00:00:00 10,1 7,7 0,0
18.05.2018 23:00:00 12,0 6,9 0,0
18.05.2018 22:00:00 14,2 7,3 0,0
18.05.2018 21:00:00 15,9 7,4 0,0
18.05.2018 20:00:00 17,0 6,7 0,0
18.05.2018 19:00:00 17,1 6,7 0,0
18.05.2018 18:00:00 18,0 6,8 0,0
18.05.2018 17:00:00 18,1 6,5 0,0
18.05.2018 16:00:00 18,2 6,1 0,0
18.05.2018 15:00:00 17,6 5,3 0,0
18.05.2018 14:00:00 17,1 5,0 0,0
18.05.2018 13:00:00 16,1 5,1 0,0
18.05.2018 12:00:00 15,4 5,6 0,0
18.05.2018 11:00:00 14,6 6,5 0,0
18.05.2018 10:00:00 13,4 6,4 0,0
18.05.2018 09:00:00 11,2 5,2 0,0
18.05.2018 08:00:00 8,3 5,8 0,0
18.05.2018 07:00:00 5,5 5,0 0,0

tt = temperature
td = dewpoint
rr = precipitation

Next stations